Regional Weather Roundup
Issued by NWS Wakefield, VA

Home | Current Version | Previous Version | Graphics & Text | Print | Product List | Glossary On
Versions: 1 2 3 4 5 6 7 8 9 10 11 12 13 14 15 16 17 18 19 20 21 22 23 24 25 26 27 28 29 30 31 32 33 34 35 36 37 38 39 40 41 42 43 44 45 46 47 48 49 50
000
ASUS41 KAKQ 270915
RWRAKQ

REGIONAL WEATHER ROUNDUP
NATIONAL WEATHER SERVICE WAKEFIELD VA
500 AM EDT SAT MAY 27 2017

Note: "fair" indicates few or no clouds below 12,000 feet with no
significant weather and/or obstructions to visibility. * = Denotes
station may not report precipitation (e.g., rain,snow,etc.),
thunder or fog.

VAZ042-051-052>054-056-271000-
NORTHERN VIRGINIA

CITY           SKY/WX    TMP DP  RH WIND       PRES   REMARKS
WASH NATIONAL  PTCLDY    62  58  86 S3        29.93S
DULLES         CLOUDY    56  54  93 SE3       29.92F
FORT BELVOIR   PTCLDY    57  55  94 CALM      29.92F
QUANTICO       CLOUDY    61  59  93 W5        29.93F
FREDERICKSBRG* CLOUDY    57  57 100 CALM      29.92F
STAFFORD*      CLOUDY    56  56 100 CALM      29.96F
WARRENTON      PTCLDY    58  55  89 CALM      29.92F
CULPEPER*      PTCLDY    56  56  99 CALM      29.93F
MANASSAS*      CLEAR     57  56  96 CALM      29.93F
LEESBURG*      MOCLDY    59  57  94 CALM      29.93F
WINCHESTER     CLOUDY    52  52 100 E3        29.88F
FRONT ROYAL*   SUNNY     55  55 100 CALM      29.90F
LURAY*         MOSUNNY   54  54 100 W5        29.92F
$$

VAZ048-049-060>072-079>083-271000-
CENTRAL AND SOUTH CENTRAL VIRGINIA

CITY           SKY/WX    TMP DP  RH WIND       PRES   REMARKS
RICHMOND       CLEAR     60  57  89 CALM      29.92S
CHESTERFIELD*  NOT AVBL
PETERSBURG*    CLEAR     53  52  98 CALM      29.94R FOG
HANOVER        PTCLDY    55  52  89 CALM      29.94R
TAPPAHANNOCK*  PTCLDY    56  56 100 CALM      29.94R
QUINTON*       FAIR      55  55 100 CALM      29.92R
CHARLOTTSVILLE CLEAR     58  55  90 CALM      29.91F
GORDONSVILLE*  SUNNY     55  55 100 CALM      29.92F
ORANGE*        CLEAR     52  52 100 CALM      29.92F
LOUISA*        CLEAR     55  54  94 E3        29.91F FOG
BUMPASS*       FAIR      53  53 100 CALM      29.92F
FARMVILLE*     CLEAR     56  54  91 CALM      29.92F
CREWE*         FAIR      54  50  87 CALM      29.93S
FORT PICKETT*  FAIR      59  56  88 CALM      29.93S
CHASE CITY*    FAIR      58  56  94 CALM      29.94F
CLARKSVILLE*   FAIR      55  55 100 CALM      29.94S
SOUTH HILL*    CLEAR     58  58 100 CALM      29.99S
LAWRENCEVILLE* FAIR      57  56  96 MISG      29.94R
EMPORIA*       CLEAR     55  55 100 CALM      29.95R FOG
$$

VAZ088>098-271000-
SOUTHEAST VIRGINIA

CITY           SKY/WX    TMP DP  RH WIND       PRES   REMARKS
NORFOLK        CLEAR     63  58  83 CALM      29.91S
VIRGINIA BEACH PTCLDY    60  56  86 CALM      29.91R
NORFOLK NAVAL  CLEAR     61  57  87 CALM      29.93S
WEST POINT*    PTCLDY    55  54  98 CALM      29.94R
SALUDA*        FAIR      58  58 100 CALM      29.92R
NEWPORT NEWS   CLEAR     58  57  97 CALM      29.92
LANGLEY AFB    CLEAR     60  59  96 CALM      29.91S
FORT EUSTIS    CLEAR     60  57  90 CALM      29.90R FOG
WILLIAMSBURG*  PTCLDY    61  61 100 CALM      29.94R
HR EXEC AP*    FAIR      54  52  94 CALM      29.90F
FRANKLIN*      CLEAR     57  56  95 CALM      29.93R
US460-WAKEFLD  CLEAR     57  57 100 CALM      29.92S
$$

VAZ020-022-025-037-045-271000-
WEST CENTRAL AND SOUTHWEST VIRGINIA

CITY           SKY/WX    TMP DP  RH WIND       PRES   REMARKS
STAUNTON*      MOCLDY    52  51  98 SW5       29.95F
WAYNESBORO*    MOSUNNY   54  54  99 SW5       29.95F
HOT SPRINGS VA MOCLDY    57  45  62 W13       30.02S
LYNCHBURG      CLEAR     55  53  93 CALM      29.94F
DANVILLE       PTCLDY    57  57 100 CALM      29.94F
SOUTH BOSTON*  FAIR      55  54  95 CALM      29.94F
MARTINSVILLE   PTCLDY    53  52  97 CALM      29.97F
ROANOKE        MOCLDY    59  55  87 W3        29.96F
BLACKSBURG     MOCLDY    55  54  95 CALM      30.01S
DUBLIN*        MOCLDY    57  51  81 CALM      30.00S
MARION*        CLEAR     58  54  85 CALM      30.02F
HILLSVILLE*    MOCLDY    59  50  73 CALM      30.01S
RICHLANDS*     CLOUDY    65  57  77 SW7       30.01S
WISE*          CLOUDY    63  55  77 CALM      30.02S
ABINGDON*      PTCLDY    60  58  95 CALM      30.01S
$$

MDZ021>025-VAZ099-100-271000-
SOUTHERN MARYLAND AND THE DELMARVA PENINSULA

CITY           SKY/WX    TMP DP  RH WIND       PRES   REMARKS
PATUXENT RIVER CLOUDY    60  58  92 W5        29.92S
BAY BRIDGE APT CLOUDY    63  57  82 W3        29.92S
LEONARDTOWN    CLOUDY    55  54  94 CALM      29.94S
DOVER          PTCLDY    60  60  97 W7        29.89S
GEORGETOWN     CLOUDY    64  55  72 W5        29.91R
EASTON         MOCLDY    63  57  82 CALM      29.95S
CAMBRIDGE        N/A     61  57  88 CALM      29.92S
SALISBURY      CLOUDY    59  56  89 CALM      29.91R
OCEAN CITY     CLOUDY    60  54  80 NW5       29.92R
WALLOPS ISLAND CLEAR     60  57  89 NW5       29.92S
ACCOMACK*      PTCLDY    58  15  17 CALM      29.92R
$$

NCZ012>017-030>032-271000-
NORTH CENTRAL AND EASTERN NORTH CAROLINA

CITY           SKY/WX    TMP DP  RH WIND       PRES   REMARKS
ROANOKE RAPIDS FAIR      59  59 100 SW5       29.93S
RALEIGH        PTCLDY    62  58  86 CALM      29.96S
ELIZABETH CITY CLEAR     63  60  90 SW7       29.92S
AHOSKIE*       NOT AVBL
EDENTON*       CLEAR     70  61  74 CALM      29.94S
CURRITUCK*     CLEAR     64  62  94 CALM      29.93S
KILL DEVIL HLS CLEAR     68  60  76 CALM      29.92R
MANTEO         CLEAR     68  61  78 W6        29.94R
CAPE HATTERAS  CLEAR     71  67  87 W6        29.94S
TARBORO*       NOT AVBL
GOLDSBORO      NOT AVBL
WASHINGTON     CLEAR     63  58  84 CALM      29.95S
GREENVILLE     CLEAR     63  59  88 CALM      29.97R
NEW BERN       CLEAR     63  60  90 SW5       29.97S
WILMINGTON     CLEAR     63  61  93 CALM      29.97S
$$

VAZ048-271000-
ELSEWHERE

CITY           SKY/WX    TMP DP  RH WIND       PRES   REMARKS
HARRISBURG PA  CLEAR     54  52  93 CALM      29.91R
BALTIMORE      MOCLDY    59  55  87 CALM      29.92R
ANNAPOLIS      CLOUDY    63  59  87 CALM      29.92R
ANDREWS AFB    MOCLDY    59  56  89 CALM      29.92R
PHILADELPHIA   CLEAR     61  51  70 W10       29.89S
HENDERSON NC   CLEAR     56  54  92 SW3       29.94F
GREENSBORO     PTCLDY    61  59  93 S3        29.95F
ROCKY MOUNT    CLEAR     62  59  90 S5        29.94S
$$

VAZ100-271000-
MARINE

STATION/POSITION TIME  TEMP    WIND        PRES    WAVE   SWELL
                       AIR SEA DIR/SP/G            HT/PER HT/PER
                 (UTC) (F)     (DEG/KT/KT) (MB)    (FT/S) (FT/S)
CAPE MAY NJ      0848   64 64  300/  9/ 14 1011.8R
LEWES DE         0848   63 63  290/  8/ 10 1012.2R
15NM E FENWICK I 0850   61 58  300/  6/  6 1012.7R   3/ 8   2/ 8
WACHAPREAGUE VA  0848   60 70  290/  1/  2 1012.7S
THOMAS POINT MD  0900   64 64  310/  7/  7   N/A
GOOSES REEF MD   0900   67 61  340/  6/  6 1013.9    1
COVE POINT MD    0848   65     310/  6/  7 1013.9R
SOLOMONS ISLAND  0848   64 67  290/  3/  4   N/A
BISHOPS HEAD MD  0848   67 69  280/  6/  7 1013.5R
PINEY POINT MD   0848          360/  3/  3   N/A
POTOMAC MD       0900   65 66  340/  2/  4 1012.3    0
CAMBRIDGE MD     0842   63 68                N/A
LEWISETTA VA     0848   63 68   CALM  /  1 1013.2R
RAPPAHANNOCK LGT 0848           60/  5/  5 1013.6S
STINGRAY PT      0850   68     110/  4/  4 1012.6S
YORK RVR RNG VA  0848   68        CALM     1012.4S
YORKTOWN VA      0848   63 69   CALM  /  1 1012.7S
JAMESTOWN VA     0900   65 71  250/  4/  6   N/A     0
DOMINION TERM VA 0848   68     320/  3/  3 1013.1R
KIPTOPEKE VA     0848      67  140/  2/  2   N/A
CHES BAY BRIDGE  0848   68 67  210/  4/  4 1012.8S
CAPE HENRY VA    0848   68     240/  6/  7   N/A
WILLOUBY STN VA  0842   68      CALM  /  1 1012.8S
S CRANEY ISL VA  0848   65        CALM     1012.9R
CAPE HENRY BUOY  0842      63                N/A     2/ 7
1ST LANDING BUOY 0900   67 66              1013.1    0
CAPE CHARLES BUO 0851      63                N/A     1/ 5
64NM E OF VA BCH 0850   65 62  230/  4/  6 1013.8R   3/ 7   3/ 7
DUCK PIER NC     0848   71 63  250/  6/  8 1012.9R
44100 DUCK FRF   0835      65                N/A     2/ 8
44056 DUCK FRF   0800      63                N/A     1/ 9
OREGON INLET NC  0842   71 67  230/  9/ 10 1013.2F
HATTERAS NC      0848   71 73  240/  5/  7 1013.7S
DIAMOND SHLS NC  0850   75 77  250/ 12/ 12 1013.8F   5/ 7   5/ 7
CAPE LOOKOUT NC  0900   72     260/  7/  9 1014.1R
$$



USA.gov is the U.S. government's official web portal to all federal, state and local government web resources and services.